This is the latest recevied weather packets stored in our database for station/object DL7HMX-13. If no packets are shown the sender has not sent any weather packets the latest 10 day(s).
| Time | Temp. | Humidity | Pressure | Rain* | Wind** | Luminosity | Snow |
|---|---|---|---|---|---|---|---|
| 1777813827 | 28.33° C | 25% | 1012.8 hPa | 0 mm | - | 622 W/m² | - |
| 1777813230 | 27.78° C | 27% | 1013 hPa | 0 mm | - | 638 W/m² | - |
| 1777812617 | 27.78° C | 28% | 1013.2 hPa | 0 mm | - | 593 W/m² | - |
| 1777812019 | 27.22° C | 29% | 1013.2 hPa | 0 mm | - | 584 W/m² | - |
| 1777811422 | 27.22° C | 29% | 1013.3 hPa | 0 mm | - | 671 W/m² | - |
| 1777810825 | 27.22° C | 29% | 1013.5 hPa | 0 mm | - | 617 W/m² | - |
| 1777810228 | 27.78° C | 28% | 1013.6 hPa | 0 mm | - | 632 W/m² | - |
| 1777809630 | 27.22° C | 30% | 1013.7 hPa | 0 mm | - | 628 W/m² | - |
| 1777809018 | 27.22° C | 28% | 1013.9 hPa | 0 mm | - | 662 W/m² | - |
| 1777808420 | 26.67° C | 30% | 1013.9 hPa | 0 mm | - | 657 W/m² | - |
| 1777807824 | 27.22° C | 30% | 1014.1 hPa | 0 mm | - | 659 W/m² | - |
| 1777807227 | 26.11° C | 32% | 1014.2 hPa | 0 mm | - | 657 W/m² | - |
| 1777806628 | 27.22° C | 32% | 1014.3 hPa | 0 mm | - | 654 W/m² | - |
| 1777806032 | 26.11° C | 34% | 1014.4 hPa | 0 mm | - | 650 W/m² | - |
| 1777805418 | 26.11° C | 36% | 1014.6 hPa | 0 mm | - | 646 W/m² | - |
| 1777804821 | 25° C | 38% | 1014.8 hPa | 0 mm | - | 646 W/m² | - |
| 1777804225 | 26.11° C | 37% | 1014.9 hPa | 0 mm | - | 649 W/m² | - |
| 1777803627 | 25.56° C | 37% | 1015.1 hPa | 0 mm | - | 644 W/m² | - |
| 1777803030 | 25° C | 38% | 1015.2 hPa | 0 mm | - | 630 W/m² | - |
| 1777802443 | 24.44° C | 39% | 1015.2 hPa | 0 mm | - | 622 W/m² | - |
| 1777801816 | 24.44° C | 40% | 1015.4 hPa | 0 mm | - | 605 W/m² | - |
| 1777801220 | 23.89° C | 41% | 1015.7 hPa | 0 mm | - | 589 W/m² | - |
| 1777800622 | 22.78° C | 42% | 1015.7 hPa | 0 mm | - | 593 W/m² | - |
| 1777800025 | 22.22° C | 42% | 1016 hPa | 0 mm | - | 532 W/m² | - |
| 1777799428 | 22.22° C | 43% | 1016 hPa | 0 mm | - | 534 W/m² | - |
* Rain latest hour (hover to see other rain measurements)
** Current wind speed in m/s (hover to see current wind gust speed)